Weather History for Golovin, AK

Change the Weather History Date:

Thursday, May 1, 2014

  Actual Average Record
Temperature  
Mean Temperature 40 °F -  
Max Temperature 44 °F - - ()
Min Temperature 35 °F - - ()
Degree Days  
Heating Degree Days 26    
Moisture  
Dew Point 34 °F    
Average Humidity 76    
Maximum Humidity 93    
Minimum Humidity 66    
Precipitation  
Precipitation 0.00 in - - ()
Sea Level Pressure  
Sea Level Pressure 30.57 in    
Wind  
Wind Speed 6 mph (SE)    
Max Wind Speed 10 mph    
Max Gust Speed -    
Visibility 10 miles    
Events      
T = Trace of Precipitation, MM = Missing Value Source: NWS Daily Summary

Daily Weather History Graph

Daily Weather History Graph

Search for Another Location

Airport:

Trip Planner

Search our weather history database for the weather conditions in past years. The results will help you decide how hot, cold, wet, or windy it might be!

Date:

Astronomy

May. 01, 2014 Rise Set
Actual Time 6:20 AM AKDT 11:20 PM AKDT
Civil Twilight 5:08 AM AKDT 12:33 AM AKDT
Nautical Twilight 3:21 AM AKDT 2:16 AM AKDT
Astronomical Twilight Sun does not rise Sun does not rise
Moon 7:52 AM AKDT (5/1) 1:31 AM AKDT (5/1)
Length of Visible Light 19h 25m
Length of Day
16h 59m
Waxing Crescent, 7% of the Moon is Illuminated
May 1
Waxing Crescent
May 6
First Quarter
May 14
Full
May 21
Last Quarter
May 28
New

Hourly Weather History & Observations

Time (AKDT) Temp. Windchill Dew Point Humidity Pressure Visibility Wind Dir Wind Speed Gust Speed Precip Events Conditions
9:55 AM 35.6 °F 29.2 °F 33.8 °F 93% 30.54 in 10.0 mi East 8.1 mph - N/A   Overcast
12:52 PM 37.4 °F 30.3 °F 33.8 °F 87% 30.58 in 10.0 mi SSE 10.4 mph - N/A   Overcast
3:56 PM 41.0 °F 36.4 °F 35.6 °F 81% 30.58 in 10.0 mi SE 6.9 mph - N/A   Clear
4:16 PM 42.8 °F 37.5 °F 35.6 °F 76% 30.58 in 10.0 mi SE 9.2 mph - N/A   Clear
4:36 PM 42.8 °F 37.5 °F 35.6 °F 76% 30.58 in 10.0 mi SE 9.2 mph - N/A   Clear
4:56 PM 41.0 °F 35.8 °F 33.8 °F 76% 30.58 in 10.0 mi SE 8.1 mph - N/A   Clear
5:16 PM 42.8 °F 37.5 °F 35.6 °F 76% 30.58 in 10.0 mi SE 9.2 mph - N/A   Clear
5:36 PM 42.8 °F 37.5 °F 33.8 °F 70% 30.58 in 10.0 mi SSE 9.2 mph - N/A   Mostly Cloudy
5:56 PM 42.8 °F 37.5 °F 35.6 °F 76% 30.58 in 10.0 mi SE 9.2 mph - N/A   Overcast
6:16 PM 42.8 °F 39.3 °F 35.6 °F 76% 30.58 in 10.0 mi SSE 5.8 mph - N/A   Overcast
6:36 PM 44.6 °F 42.2 °F 33.8 °F 66% 30.58 in 10.0 mi SE 4.6 mph - N/A   Scattered Clouds
6:56 PM 42.8 °F 41.1 °F 33.8 °F 70% 30.58 in 10.0 mi SSE 3.5 mph - N/A   Clear
7:16 PM 44.6 °F 42.2 °F 35.6 °F 71% 30.57 in 10.0 mi SSE 4.6 mph - N/A   Clear
7:36 PM 42.8 °F 40.1 °F 33.8 °F 70% 30.57 in 10.0 mi SE 4.6 mph - N/A   Clear
7:56 PM 42.8 °F 40.1 °F 33.8 °F 70% 30.57 in 10.0 mi SE 4.6 mph - N/A   Clear
8:16 PM 42.8 °F 40.1 °F 33.8 °F 70% 30.57 in 10.0 mi SSE 4.6 mph - N/A   Clear
8:36 PM 42.8 °F 38.6 °F 33.8 °F 70% 30.56 in 10.0 mi SSE 6.9 mph - N/A   Clear
8:56 PM 41.0 °F 38.0 °F 33.8 °F 76% 30.56 in 10.0 mi SSE 4.6 mph - N/A   Clear
9:16 PM 42.8 °F - 33.8 °F 70% 30.57 in 10.0 mi Calm Calm - N/A   Clear
9:36 PM 42.8 °F - 33.8 °F 70% 30.57 in 10.0 mi Calm Calm - N/A   Clear
9:56 PM 42.8 °F - 33.8 °F 70% 30.57 in 10.0 mi Calm Calm - N/A   Clear
10:16 PM 41.0 °F - 33.8 °F 76% 30.57 in 10.0 mi Calm Calm - N/A   Clear
10:36 PM 39.2 °F - 33.8 °F 81% 30.58 in 10.0 mi Calm Calm - N/A   Clear
10:56 PM 41.0 °F - 33.8 °F 76% 30.58 in 10.0 mi Calm Calm - N/A   Clear
11:16 PM 37.4 °F 34.9 °F 32.0 °F 81% 30.58 in 10.0 mi NW 3.5 mph - N/A   Clear
11:36 PM 37.4 °F 34.9 °F 33.8 °F 87% 30.58 in 10.0 mi NW 3.5 mph - N/A   Clear
11:56 PM 37.4 °F 34.9 °F 33.8 °F 87% 30.58 in 10.0 mi NW 3.5 mph - N/A   Clear